                ,  0.671,  0.819,  0.966,  1.114,  1.262,  1.410,  1.558,  1.705,  1.853,  2.001,  2.149,  2.297,  2.445,  2.592,  2.740,  2.888,  3.036,  3.184,  3.331,  3.479,  3.627,  3.775,  3.923,  4.070,  4.218,  4.366,  4.514,  4.662,  4.809,  4.957,  5.105,  5.253,  5.401,  5.549,  5.696,  5.844,  5.992,  6.140,  6.288,  6.435,  6.583,  6.731,  6.879,  7.027,  7.174,  7.322,  7.470,  7.618,  7.766,  7.914,  8.061,  8.209,  8.357,  8.505,  8.653,  8.800,  8.948,  9.096,  9.244,  9.392,  9.539,  9.687,  9.835
2001/10/10 00:00,  999.0,   -0.0,   -0.0,    0.1,   11.8,   12.2,   16.9,   17.9,   19.7,   20.2,   20.5,   20.8,   21.5,   22.1,   22.2,   15.2,  999.0,  999.0,  999.0,  999.0,  999.0,   18.9,   19.1,   18.6,   17.4,   16.7,   15.2,  999.0,  999.0,   14.3,  999.0,  999.0,  999.0,  999.0,  999.0,  999.0,  999.0,  999.0,  999.0,  999.0,  999.0,  999.0,  999.0,  999.0,  999.0,  999.0,  999.0,  999.0,  999.0,   12.5,   12.8,   12.7,   13.1,   14.4,   16.5,   16.6,   16.6,  999.0,   18.7,   19.7,  999.0,  999.0,   19.5
2001/10/10 00:10,  999.0,  999.0,   -0.1,    2.1,   10.9,   13.3,   14.7,   17.3,   19.2,   20.3,   19.9,   20.4,   20.8,   21.1,   21.5,   14.3,  999.0,  999.0,  999.0,  999.0,  999.0,  999.0,  999.0,  999.0,   15.9,  999.0,   14.1,  999.0,  999.0,  999.0,  999.0,  999.0,  999.0,  999.0,  999.0,  999.0,  999.0,  999.0,  999.0,  999.0,  999.0,  999.0,  999.0,  999.0,  999.0,   15.7,   14.0,   14.5,   13.8,   14.9,   15.3,   18.5,   19.5,   19.0,   19.2,  999.0,  999.0,  999.0,  999.0,  999.0,  999.0,  999.0,  999.0
2001/10/10 00:20,  999.0,    0.0,    0.4,    3.4,   12.3,   14.1,   16.7,   19.2,   19.8,   20.4,   20.4,   19.9,   20.4,   21.8,   21.9,   19.1,   22.7,   23.6,   15.1,   14.8,   20.6,   19.2,   17.6,   19.6,   17.6,   15.9,   17.4,   18.1,   18.6,   17.4,   16.5,   15.5,   14.7,   14.4,   14.5,   14.2,   14.9,   16.1,   16.3,   18.1,   18.5,   19.3,   19.7,   19.9,   19.8,   19.6,   17.7,   18.5,   16.8,  999.0,  999.0,  999.0,  999.0,  999.0,  999.0,  999.0,  999.0,  999.0,  999.0,  999.0,  999.0,  999.0,  999.0
2001/10/10 00:30,  999.0,    9.7,    9.1,   10.6,   11.3,   13.2,   16.4,   18.8,   20.4,   20.5,   20.2,   20.3,   19.8,   19.8,   20.0,   16.2,   21.1,   20.7,   15.2,    9.1,   19.4,   14.5,   16.0,   15.2,   13.2,   11.3,  999.0,   18.6,   18.7,   19.3,   18.8,   18.4,   17.3,   16.5,   16.6,   16.3,   15.5,   14.5,   15.2,   13.8,   13.7,   12.9,   14.1,   13.5,   15.1,  999.0,  999.0,  999.0,  999.0,  999.0,  999.0,  999.0,  999.0,  999.0,  999.0,  999.0,  999.0,  999.0,  999.0,  999.0,  999.0,  999.0,  999.0
2001/10/10 00:40,  999.0,    2.7,    7.3,    7.1,    8.8,   11.0,   14.0,   17.4,   19.5,   20.1,   20.5,   20.1,   20.0,   20.0,   19.6,    5.5,  999.0,  999.0,   -0.0,   -0.2,  999.0,   13.0,   16.6,   16.6,  999.0,  999.0,  999.0,  999.0,  999.0,  999.0,  999.0,  999.0,  999.0,  999.0,   12.5,   13.5,   14.8,   15.9,   14.7,   16.0,   17.5,  999.0,  999.0,  999.0,  999.0,  999.0,  999.0,  999.0,  999.0,  999.0,  999.0,  999.0,  999.0,  999.0,  999.0,  999.0,  999.0,  999.0,  999.0,  999.0,  999.0,  999.0,  999.0
2001/10/10 00:50,  999.0,    0.1,   -0.3,    3.0,   11.0,    9.9,   13.4,   16.1,   17.3,   18.2,   19.0,   19.0,   20.2,   19.7,   20.3,   17.5,   13.4,   15.8,  999.0,    0.4,    8.4,   15.4,   16.4,   16.2,  999.0,  999.0,  999.0,  999.0,  999.0,  999.0,  999.0,  999.0,  999.0,  999.0,  999.0,  999.0,  999.0,   13.5,  999.0,  999.0,   11.1,   12.4,   13.1,   13.6,   14.9,  999.0,  999.0,  999.0,  999.0,  999.0,  999.0,  999.0,  999.0,  999.0,  999.0,  999.0,  999.0,  999.0,  999.0,  999.0,  999.0,  999.0,  999.0
2001/10/10 01:00,  999.0,    0.1,   -0.1,   10.4,   12.7,   15.8,   16.6,   17.4,   17.9,   18.9,   18.9,   19.2,   20.0,   21.5,   21.1,   20.8,   14.7,  999.0,  999.0,  999.0,   16.6,   15.2,   14.6,   15.3,  999.0,  999.0,  999.0,  999.0,  999.0,  999.0,  999.0,   11.4,   12.3,   13.0,   11.8,   13.1,   11.6,   10.2,   12.0,   13.0,   13.5,   13.9,   14.8,   15.5,   15.0,   15.6,   15.6,  999.0,  999.0,  999.0,  999.0,  999.0,  999.0,  999.0,  999.0,  999.0,  999.0,  999.0,  999.0,  999.0,  999.0,  999.0,  999.0
2001/10/10 01:10,  999.0,  999.0,   -0.1,    3.8,   10.6,   13.8,   17.3,   17.8,   17.9,   20.0,   19.3,   20.5,   20.6,   21.9,   22.3,   20.6,   17.5,   20.1,   13.4,   13.5,   18.2,   16.5,   15.9,   17.9,   19.9,   20.6,   21.5,   21.6,  999.0,  999.0,  999.0,  999.0,  999.0,  999.0,   15.9,  999.0,   13.0,   12.7,   13.9,   14.5,   14.8,   15.0,   15.5,   16.0,  999.0,  999.0,  999.0,  999.0,  999.0,  999.0,  999.0,  999.0,  999.0,  999.0,  999.0,  999.0,  999.0,  999.0,  999.0,  999.0,  999.0,  999.0,  999.0
2001/10/10 01:20,  999.0,    2.6,    1.0,    5.0,   11.1,   14.8,   16.5,   17.5,   17.8,   20.3,   22.5,   22.2,   20.6,   21.7,   22.2,   20.8,   23.7,   23.9,   22.8,   22.1,   21.8,   22.8,   22.8,   22.1,   20.8,   20.3,   16.8,   19.7,   17.2,   19.5,   18.1,   19.0,   19.3,  999.0,   19.3,   18.9,   19.2,   16.9,   17.4,   16.7,   18.1,   16.4,   15.9,   16.2,   15.0,   13.8,   13.2,   10.9,  999.0,  999.0,  999.0,  999.0,  999.0,  999.0,  999.0,  999.0,  999.0,  999.0,  999.0,  999.0,  999.0,  999.0,  999.0
2001/10/10 01:30,  999.0,    0.1,   -0.1,    0.2,   10.5,   14.2,   14.5,   18.1,   18.6,   20.2,   19.9,   20.2,   19.0,   18.2,   22.5,   22.7,   17.5,   23.7,  999.0,  999.0,   21.6,   23.1,   20.8,   19.0,   21.9,   19.7,   20.9,   18.4,   18.3,   16.4,   16.2,   15.0,   15.2,   14.2,   14.7,   15.1,   15.7,   15.0,  999.0,  999.0,  999.0,  999.0,  999.0,  999.0,  999.0,  999.0,  999.0,  999.0,  999.0,  999.0,  999.0,  999.0,  999.0,  999.0,  999.0,  999.0,  999.0,  999.0,  999.0,  999.0,  999.0,  999.0,  999.0
2001/10/10 01:40,  999.0,  999.0,    0.2,    0.3,   10.1,   13.9,   15.5,   18.6,   18.1,   17.6,   20.2,   17.0,   20.8,   23.4,   22.3,   22.3,   12.3,   11.7,   21.4,   22.3,   20.0,   23.2,   18.6,   18.6,   20.5,   20.5,   20.5,   19.1,   19.5,   19.1,   19.4,   19.1,   18.0,   17.3,   16.9,   15.3,  999.0,  999.0,  999.0,  999.0,  999.0,  999.0,  999.0,  999.0,  999.0,  999.0,  999.0,  999.0,  999.0,  999.0,  999.0,  999.0,  999.0,  999.0,  999.0,  999.0,  999.0,  999.0,  999.0,  999.0,  999.0,  999.0,  999.0
2001/10/10 01:50,  999.0,    0.0,    0.1,    2.0,   15.1,   10.8,   12.9,   15.7,   14.2,   20.1,   17.3,   14.5,   14.9,   18.2,   23.8,   23.8,   25.0,   25.3,   24.6,   23.5,   23.8,   24.0,   23.3,   23.1,   22.9,   22.5,   20.8,   20.7,   20.2,   19.4,   17.9,   16.2,   14.6,   13.3,   12.0,   10.1,    8.0,  999.0,  999.0,  999.0,  999.0,  999.0,  999.0,  999.0,  999.0,  999.0,  999.0,  999.0,  999.0,  999.0,  999.0,  999.0,  999.0,  999.0,  999.0,  999.0,  999.0,  999.0,  999.0,  999.0,  999.0,  999.0,  999.0
2001/10/10 02:00,  999.0,    0.1,   -0.0,    2.5,   11.5,   12.6,   14.1,   15.2,   20.0,   17.5,   20.4,   20.2,   21.7,   22.0,   24.5,   24.1,   21.6,   25.7,   25.6,   26.3,   26.1,   25.7,   25.2,   23.7,   22.4,   22.1,   20.8,   18.3,   15.3,   13.4,   12.8,   10.7,    9.9,   10.0,  999.0,  999.0,    7.4,  999.0,   13.5,   13.4,   15.5,  999.0,  999.0,   14.8,  999.0,   16.2,   16.2,   16.2,   14.4,   15.7,   16.9,  999.0,  999.0,  999.0,  999.0,  999.0,  999.0,  999.0,  999.0,  999.0,  999.0,  999.0,  999.0
2001/10/10 02:10,  999.0,   -0.1,    2.6,    7.8,    9.4,   11.7,   13.6,   15.9,   18.4,   19.7,   20.5,   21.9,   23.0,   24.1,   25.6,  999.0,   26.8,   23.3,   27.2,   26.6,   27.9,   27.4,   24.0,   21.5,   23.4,   18.1,   14.8,   15.1,   12.7,   12.8,   11.6,   11.5,   11.6,   12.5,   13.3,   14.0,   15.4,   16.2,   17.2,   18.7,   19.9,   20.4,   20.6,   19.9,   19.4,   18.7,   18.4,   18.3,   18.2,   17.6,   15.5,   16.5,   16.4,   16.0,   16.2,   16.7,   17.0,   16.5,   17.0,   17.8,  999.0,  999.0,  999.0
2001/10/10 02:20,  999.0,    6.2,    7.3,    8.4,    9.0,   10.0,   12.1,   13.6,   18.6,   21.1,   22.3,   23.2,   24.3,   24.4,   25.4,   26.8,   27.6,   28.6,   27.9,   27.7,   26.1,   24.4,   22.0,   19.9,   17.9,   15.4,   14.0,   14.2,   14.1,   13.9,   14.1,   14.1,   14.7,   15.8,   16.7,   17.7,   18.7,   20.0,   21.3,   22.0,   21.8,   21.0,   20.7,   19.7,   19.6,   19.7,   19.3,   18.9,   18.8,   18.5,   19.7,   20.2,   19.6,   17.3,   19.4,   18.0,   18.6,   18.9,   19.4,   19.8,   20.4,   20.9,   20.3
2001/10/10 02:30,  999.0,    4.9,    6.5,    8.1,   10.8,   12.6,   15.1,   17.3,   19.6,   21.2,   22.4,   23.1,   24.5,   25.9,   27.0,   27.7,   28.2,   26.9,   25.1,   24.0,   22.0,   19.5,   16.1,   15.3,   15.5,   14.3,   15.2,   16.4,   17.6,   18.2,   19.7,   20.9,   20.7,   21.2,   20.9,   20.3,   19.8,   19.3,   19.5,   19.0,   19.3,   19.1,   19.8,   19.1,   19.1,   19.8,   18.8,   17.9,  999.0,  999.0,   18.2,  999.0,  999.0,  999.0,  999.0,  999.0,  999.0,  999.0,  999.0,  999.0,  999.0,  999.0,  999.0
2001/10/10 02:40,  999.0,    4.6,    7.3,    7.7,    9.9,   11.8,   14.7,   18.2,   20.7,   22.0,   23.0,   24.1,   24.8,   26.2,   27.4,   27.2,   26.3,   24.3,   22.9,   21.5,   20.1,   18.2,   16.4,   16.5,   17.4,   17.7,   19.1,   19.8,   21.3,   23.2,   23.9,   24.1,   23.3,   21.1,   21.1,   20.8,   20.0,   18.9,   19.4,   18.7,   18.5,   17.2,   17.3,   15.9,   14.8,   14.5,   13.8,   13.7,   12.9,   11.8,    9.9,  999.0,  999.0,    9.6,  999.0,  999.0,  999.0,  999.0,  999.0,  999.0,  999.0,  999.0,  999.0
2001/10/10 02:50,  999.0,    5.0,    7.3,    9.1,   10.8,   12.8,   15.3,   18.6,   21.3,   23.0,   24.7,   25.2,   25.5,   26.1,   26.5,   26.1,   25.7,   24.4,   23.5,   22.3,   21.5,   20.5,   19.8,   19.5,   18.7,   19.1,   20.2,   21.6,   23.2,   25.4,   26.0,   26.1,   25.1,   23.9,   23.6,   20.9,   19.0,   16.0,   16.0,   15.0,   14.2,   13.4,   13.6,   13.1,   12.9,   13.4,   13.4,   14.8,   14.3,   14.1,   14.1,   14.3,   14.8,   14.4,   13.4,   13.6,   13.0,   13.6,   14.5,   15.4,   15.9,   17.8,   17.3
2001/10/10 03:00,  999.0,    5.3,    7.0,    8.0,   10.4,   12.9,   16.1,   19.5,   22.3,   23.8,   25.1,   26.0,   25.8,   25.8,   24.9,   25.2,   25.2,   22.9,   21.8,   21.2,   20.5,   20.0,   20.2,   20.6,   20.5,   20.9,   21.6,   22.4,   23.3,   24.4,   25.3,   25.2,   24.5,   23.0,   20.4,   18.7,   17.6,   17.2,   16.2,   18.0,   18.5,   18.4,   17.5,   17.1,   16.7,   15.8,   15.0,   15.8,   14.9,   14.6,   15.2,   15.5,   14.7,   14.3,   14.6,   15.0,   15.1,   15.8,   15.1,   15.3,   15.6,   16.0,   16.3
2001/10/10 03:10,  999.0,    5.3,    7.5,    9.4,   10.6,   12.7,   15.9,   19.9,   22.5,   24.0,   25.7,   26.4,   25.8,   25.5,   25.1,   24.0,   24.5,   24.7,   24.7,   24.5,   24.8,   25.8,   25.8,   25.8,   25.6,   24.7,   24.9,   25.2,   25.2,   23.1,   22.0,   21.2,   20.5,   19.5,   18.6,   17.7,   16.7,   15.8,   15.8,   16.0,   16.1,   15.7,   15.3,   14.7,   15.4,   15.5,   16.8,   17.2,   18.0,   18.2,   18.8,   19.3,   19.8,   20.0,   19.8,   19.6,   19.2,   19.2,   19.0,   19.5,   18.4,   19.0,   18.9
2001/10/10 03:20,  999.0,    5.4,    7.6,    8.5,    8.9,   11.6,   16.6,   20.2,   22.8,   24.6,   26.2,   26.3,   26.4,   26.6,   26.9,   26.2,   26.0,   27.3,   27.5,   28.3,   28.1,   25.2,   22.3,   20.6,   19.0,   17.0,   16.3,   19.1,   18.5,   18.2,   17.8,   17.4,   17.0,   16.4,   16.4,   16.1,   15.9,   16.3,   17.0,   17.7,   18.6,   19.0,   19.6,   20.0,   20.4,   20.9,   21.1,   20.5,   20.6,   21.0,   21.0,   21.0,   20.3,   20.8,   20.0,   19.8,   19.3,   19.3,   21.0,   19.4,   18.0,   18.1,   18.5
2001/10/10 03:30,  999.0,    3.8,    5.5,    6.9,    7.5,   11.2,   15.6,   18.9,   21.6,   23.8,   25.6,   26.3,   26.7,   26.6,   26.2,   25.6,   25.9,   26.1,   25.9,   25.0,   23.4,   22.4,   21.5,   20.8,   20.6,   20.7,   21.4,   21.4,   20.7,   20.5,   20.8,   21.0,   21.3,   20.9,   20.9,   20.8,   20.3,   19.8,   19.5,   19.5,   19.3,   18.7,   18.4,   18.0,   18.1,   17.8,   18.2,   18.0,   18.7,   18.7,   17.0,   16.9,   17.6,   17.4,   17.9,   16.6,   15.5,   15.6,   16.2,   16.9,   17.3,   17.9,   17.9
2001/10/10 03:40,  999.0,    4.2,    5.2,    5.9,    8.8,   11.7,   16.9,   19.9,   22.6,   23.7,   23.9,   24.6,   25.4,   25.9,   25.7,   25.3,   25.0,   24.5,   24.1,   24.0,   24.2,   22.7,   21.9,   21.6,   20.8,   21.5,   22.3,   23.2,   23.6,   24.0,   24.1,   24.3,   24.2,   23.6,   23.5,   22.5,   21.9,   21.2,   21.0,   20.1,   19.4,   19.5,   19.4,   20.6,   20.3,   19.7,   19.9,   17.2,   15.6,   15.9,   14.5,   13.9,   14.7,   15.8,   14.6,   15.7,   16.3,   15.9,   16.7,   15.3,   15.7,   16.2,   16.4
2001/10/10 03:50,  999.0,    4.3,    5.4,    6.4,    9.6,   12.9,   16.0,   18.6,   21.8,   23.5,   24.6,   25.7,   27.0,   26.8,   26.7,   26.8,   27.1,   27.3,   27.6,   27.9,   27.5,   26.6,   25.9,   27.9,   27.2,   27.0,   26.6,   27.0,   27.2,   26.8,   25.8,   25.1,   25.3,   24.2,   22.8,   21.2,   19.7,   18.9,   18.0,   17.4,   16.7,   16.1,   14.8,   14.8,   14.5,   14.4,   13.7,   14.5,   11.6,   10.8,   13.4,   11.5,   10.6,    9.6,   12.8,   12.6,   13.1,   12.9,   13.5,   12.4,   13.2,   13.9,   14.7
2001/10/10 04:00,  999.0,    5.2,   10.9,    9.0,   10.8,   10.5,   14.1,   17.1,   20.0,   22.3,   23.8,   24.7,   26.5,   26.8,   26.4,   25.0,   27.1,   27.5,   28.9,   28.3,  999.0,  999.0,   29.8,  999.0,   29.6,   29.3,   28.4,   28.5,   26.3,   23.7,   22.2,   20.9,   19.5,   18.3,   18.7,   16.7,   14.8,   14.5,   13.7,   13.1,   12.0,   11.5,  999.0,  999.0,  999.0,  999.0,   14.6,   13.4,   12.7,   14.2,   12.2,   11.8,   11.6,   12.0,   12.5,   12.1,   12.0,   12.7,   13.8,   15.7,   17.1,   18.8,   20.0
2001/10/10 04:10,  999.0,    6.5,    6.1,    8.6,    9.6,   10.4,   14.2,   17.9,   21.0,   23.3,   25.2,   26.3,   27.4,   27.3,   28.2,   27.9,   28.4,   28.7,   28.4,  999.0,  999.0,   29.3,   27.9,   26.7,   25.1,   24.0,   20.6,   21.2,   17.5,   15.6,   13.7,   11.7,   10.9,    9.7,    9.5,    9.6,    8.3,    8.7,    8.9,    9.0,    9.2,   10.7,   11.1,   11.0,   12.5,   12.0,   12.9,   13.0,   13.7,   13.4,   13.5,   12.9,   13.5,   14.7,   15.8,   17.3,   18.5,   19.3,   19.8,   19.9,   20.1,   20.1,   20.0
2001/10/10 04:20,  999.0,    9.5,    8.4,   11.0,   11.5,   11.3,   13.5,   17.2,   20.8,   23.5,   26.1,   27.7,   28.7,   28.8,   29.5,  999.0,   29.2,   28.1,   28.5,   26.9,   25.7,   24.1,   21.6,   20.1,   17.0,   14.6,   13.1,   13.4,   13.1,   12.7,   13.1,   12.1,   11.8,   11.6,   11.8,   13.3,   13.9,   13.3,   14.2,   16.3,   15.5,   16.6,   18.0,   17.9,   18.5,   19.0,   18.9,   19.0,   18.8,   18.8,   18.9,   19.1,   19.6,   20.0,   20.3,   20.4,   20.3,   20.4,   20.4,   20.7,   20.5,   20.5,   20.6
2001/10/10 04:30,  999.0,   10.2,   10.8,   11.3,   11.4,   12.3,   14.8,   17.8,   20.5,   23.0,   25.5,   27.5,   28.7,   28.8,   28.2,   28.0,   25.8,   23.9,   22.5,   21.8,   21.9,   21.8,   20.7,   19.5,   17.8,   16.8,   17.3,   16.9,   17.6,   17.1,   16.4,   16.3,   15.6,   16.5,   16.6,   19.4,   16.1,   17.1,   17.1,   17.2,   16.5,   15.1,   16.8,   17.2,   16.5,   17.6,   17.2,   17.5,   18.0,   18.1,   17.6,   18.1,   18.5,   18.8,   19.1,   18.9,   18.6,   19.2,   19.0,   18.7,   19.1,   18.9,   19.1
2001/10/10 04:40,  999.0,    7.6,    7.4,    8.4,   11.3,   12.4,   15.4,   18.9,   22.4,   24.7,   26.3,   26.3,   27.4,   27.4,   25.5,   25.4,   24.6,   23.5,   22.8,   22.8,   21.9,   21.0,   20.1,   18.9,   17.0,   15.8,   17.6,   19.8,   19.4,   19.1,   18.0,   17.7,   17.7,   17.6,   18.0,   17.1,   16.4,   16.2,   15.5,   15.1,   14.6,   15.3,   14.7,   15.6,   15.5,   14.5,   15.3,   15.0,   15.1,   14.4,   16.0,   15.3,   15.6,   17.1,  999.0,   15.7,   16.8,  999.0,  999.0,  999.0,  999.0,  999.0,  999.0
2001/10/10 04:50,  999.0,    7.1,    8.5,    9.1,   10.5,   12.9,   17.2,   19.8,   21.6,   23.8,   26.1,   26.9,   26.6,   25.9,   24.1,   23.1,   22.7,   22.8,   21.8,   23.3,   23.6,   24.3,   24.5,   24.1,   24.1,   24.1,   25.6,   24.4,   23.1,   22.7,   22.4,   22.7,   23.1,   22.8,   22.5,   22.3,   21.9,   21.2,   20.2,   19.1,   18.5,   18.5,   17.3,   16.8,   16.7,   15.8,   16.3,   17.0,   16.1,   16.2,   16.0,   17.0,   17.3,   17.2,   16.1,   14.9,   15.4,   13.8,   14.3,   16.9,   17.8,   18.5,   20.7
2001/10/10 05:00,  999.0,    9.1,   11.5,   11.2,   11.9,   14.1,   17.1,   20.3,   22.6,   24.3,   26.9,   27.2,   26.9,   27.0,   26.4,   26.8,   26.8,   27.3,   27.3,   26.0,   25.8,   25.7,   26.0,   24.8,   24.0,   24.6,   24.3,   23.8,   23.8,   24.4,   24.7,   26.0,   27.2,   28.5,   28.7,   28.2,   28.1,   27.4,   26.5,   25.8,   24.8,   23.4,   22.9,   22.8,   21.9,   21.1,   20.1,   19.6,   19.6,   19.5,   18.7,   18.7,   19.4,   19.1,   18.9,   19.1,   18.7,   20.1,   20.0,   19.7,   20.0,   19.9,   20.2
2001/10/10 05:10,  999.0,    6.2,    7.3,    7.7,   10.0,   13.5,   16.2,   18.5,   21.4,   24.0,   25.9,   25.5,   24.9,   25.9,   27.1,   27.5,   27.7,   28.2,   29.0,   28.0,   27.3,   26.2,   25.8,   25.5,   24.0,   24.2,   26.0,   27.4,   25.9,   25.1,   24.9,   24.9,   24.6,   24.0,   23.6,   23.3,   22.9,   22.5,   22.3,   21.7,   21.9,   21.5,   21.0,   19.4,   19.6,   19.2,   19.3,   19.8,   20.3,   20.5,   20.8,   21.0,   21.8,   22.1,   21.9,   21.8,   22.0,   22.8,   22.7,   23.3,   23.0,   23.0,   23.6
